[[{"header":{"parameterUnit":"m.s-1","parameterCategory":1,"la1":30.2991,"la2":30.254,"lo1":-89.0895,"lo2":-89.0444,"dy":0.0017,"dx":0.0017,"nx":28,"ny":28,"refTime":"2023-11-14T09:00:00:Z","depth":0,"parameterNumber":2,"parameterNumberName":"U-component_of_WINDS"},"data":[0,0,0,0,0,0,0,0,0,0,0,0,0,0,0,0,0,0,0,0,0,0,0,0,0,0,0,0,0,0,0,0,0,0,0,0,0,0,0,0,0,0,0,0,0,0,0,0,0,0,0,0,0,0,0,0,0,0,-6.9174,-6.9177,0,-6.9441,-6.9444,-6.9447,-6.9328,-6.9322,-6.9315,-6.9309,-6.9594,-6.9607,-6.962,0,0,0,0,0,0,0,0,0,0,0,0,0,-6.8571,-6.8583,-6.9174,-6.9177,-6.918,-6.9441,-6.9444,-6.9448,-6.933,-6.9321,-6.9313,-6.9306,-6.9589,-6.9605,-6.9622,0,0,0,0,0,0,0,0,0,0,0,0,0,-6.8836,-6.8587,-6.9173,-6.9152,-6.9153,-6.944,-6.9444,-6.9449,-6.9331,-6.9321,-6.9311,-6.9302,-6.9584,-6.9604,-6.9624,-6.995,0,0,-6.9687,-6.9696,0,0,0,0,0,0,0,0,-6.8821,-6.8858,-6.9152,-6.9154,-6.9156,-6.9341,-6.9336,-6.9617,-6.9334,-6.9264,-6.9309,-6.9297,-6.9518,-6.9544,-6.9616,-6.9963,-6.9976,-6.9689,-6.9701,-6.971,-6.9716,0,0,0,0,0,0,0,-6.8803,-6.8846,-6.928,-6.9156,-6.9159,-6.9133,-6.916,-6.9389,-6.9444,-6.9269,-6.9261,-6.9294,-6.9517,-6.9596,-6.9622,-6.998,-6.9688,-6.9707,-6.9719,-6.9727,-7.0613,-7.0623,0,0,0,0,0,0,-6.8783,-6.8831,-6.9271,-6.9288,-6.896,-6.9152,-6.9182,-6.9292,-6.9441,-6.9454,-6.9302,-6.9287,-6.9566,-6.9598,-6.9631,-7.0026,-6.971,-6.9729,-6.9741,-7.0602,-7.0615,-7.0627,0,0,0,0,0,0,-6.877,-6.8823,-6.926,-6.9057,-6.9111,-6.9173,-6.9298,-6.9302,-6.9381,-6.9466,-6.9476,-6.9372,-6.9559,-6.9602,-6.9872,-7.0034,-6.9739,-6.9757,-7.0589,-7.0606,-7.0621,-7.0817,0,0,0,0,0,0,-6.8754,-6.8819,-6.8941,-6.9061,-6.9122,-6.9494,-6.9307,-6.9315,-6.9416,-6.9399,-6.9534,-6.9547,-6.9555,-6.9842,-6.9892,-7.0057,-6.9773,-7.0574,-7.0596,-7.0616,-7.0797,-7.0838,-7.0874,0,0,0,0,0,-6.8733,-6.8987,-6.8948,-6.9002,-6.9275,-6.9503,-6.9539,-6.954,-6.9429,-6.9554,-6.9609,-6.9543,-7.0007,-6.987,-6.9926,-7.01,-7.0564,-7.059,-7.0614,-7.0779,-7.083,-7.0873,0,0,0,0,0,0,-6.8889,-6.9003,-6.896,-6.9261,-6.9373,-6.9483,-6.964,-6.9593,-6.9742,-6.9721,-6.9718,-6.975,-7.003,-7.0091,-6.9936,-7.0426,-7.027,-7.0307,-7.0376,-7.0425,-7.0463,-7.0445,-6.9791,0,0,0,0,0,-6.8957,-6.9129,-6.9221,-6.9477,-6.9535,-6.9579,-6.9678,-6.9668,-6.9786,-6.9834,-6.9908,-7.0028,-7.0201,-7.0316,-7.0479,-7.0803,-7.0834,-7.0951,-7.099,-7.1021,-7.1055,-7.1236,-7.129,-7.071,-7.0709,-7.0709,0,0,-6.9103,-6.9186,-6.9295,-6.9511,-6.9596,-6.9779,-6.962,-6.9818,-6.9955,-6.9865,-7.0125,-7.0184,-7.0317,-7.0617,-7.0752,-7.0677,-7.1222,-7.1053,-7.1078,-7.1095,-7.1267,-7.1322,-7.1371,-7.0727,-7.0724,-7.0721,0,0,-6.9461,-6.9539,-6.9763,-6.9852,-6.9983,-7.001,-7.0064,-7.0182,-7.0217,-7.0476,-7.0413,-7.0577,-7.0874,-7.0973,-7.1063,-7.146,-7.1407,-7.1513,-7.1719,-7.1894,-7.194,-7.1981,-7.2127,-7.2179,-7.1546,-7.1546,-7.1547,0,-6.9626,-6.9895,-6.9885,-7.009,-7.0189,-7.0112,-7.0341,-7.0429,-7.0609,-7.0681,-7.0592,-7.0965,-7.1049,-7.1373,-7.147,-7.1543,-7.1608,-7.15,-7.1933,-7.1974,-7.2012,-7.2152,-7.2207,-7.1559,-7.1557,-7.1556,-7.1555,0,-7.0093,-7.0281,-7.0447,-7.0619,-7.0736,-7.0952,-7.0979,-7.1099,-7.108,-7.1118,-7.1386,-7.1484,-7.1668,-7.1743,-7.1727,-7.2066,-7.2016,-7.1931,-7.1775,-7.208,-7.2212,-7.2265,-7.1577,-7.1572,-7.1569,-7.1565,0,0,-7.056,-7.0723,-7.0785,-7.0864,-7.1003,-7.115,-7.1364,-7.1541,-7.1647,-7.1773,-7.1956,-7.2209,-7.2132,-7.2234,-7.2228,-7.2382,-7.2696,-7.2279,-7.2282,-7.2357,-7.3082,-7.3148,-7.321,-7.266,-7.267,-7.2678,-7.3072,0,-7.0932,-7.1303,-7.1302,-7.1648,-7.1824,-7.1754,-7.1941,-7.205,-7.2091,-7.2249,-7.2295,-7.2477,-7.2359,-7.242,-7.2569,-7.2626,-7.2843,-7.2597,-7.2836,-7.2844,-7.2809,-7.3278,-7.3348,-7.3715,-7.3123,-7.3132,-7.3138,0,-7.1415,-7.1556,-7.1919,-7.2034,-7.2108,-7.2276,-7.244,-7.259,-7.2713,-7.2732,-7.2846,-7.2817,-7.304,-7.2874,-7.3184,-7.3018,-7.3115,-7.3158,-7.3172,-7.3199,-7.3013,-7.3321,-7.3832,-7.3889,-7.3218,-7.3211,-7.3206,0,-7.1725,-7.2004,-7.2258,-7.2327,-7.2467,-7.2588,-7.2653,-7.2765,-7.2873,-7.3016,-7.3087,-7.3256,-7.335,-7.3484,-7.3503,-7.338,-7.3817,-7.3651,-7.3844,-7.3844,-7.3943,-7.3937,-7.4481,-7.3998,-7.3997,-7.3996,-7.3995,0,-7.2143,-7.2369,-7.2399,-7.2556,-7.2809,-7.2806,-7.3057,-7.3112,-7.3213,-7.3382,-7.3332,-7.3493,-7.3506,-7.3674,-7.369,-7.3948,-7.3989,-7.4015,-7.4018,-7.4023,-7.402,-7.409,-7.4067,-7.4011,-7.4008,-7.4005,-7.4002,0,-7.2533,-7.2561,-7.2835,-7.2944,-7.2978,-7.316,-7.3256,-7.3408,-7.3443,-7.3659,-7.3709,-7.3767,-7.3961,-7.3993,-7.4221,-7.4233,-7.4542,-7.4516,-7.4501,-7.4499,-7.4692,-7.4675,-7.5303,-7.5388,-7.4845,-7.485,-7.4854,0,-7.28,-7.2972,-7.31,-7.3208,-7.3279,-7.3454,-7.3563,-7.3567,-7.3684,-7.3837,-7.3973,-7.416,-7.4312,-7.4626,-7.4692,-7.4867,-7.4849,-7.5056,-7.4875,-7.4876,-7.4858,-7.4849,-7.4869,-7.5093,-7.5099,-7.5104,-7.5108,0,-7.3273,-7.3278,-7.3435,-7.3599,-7.373,-7.386,-7.3982,-7.4075,-7.4096,-7.423,-7.4426,-7.4543,-7.4776,-7.4966,-7.5141,-7.5211,-7.5167,-7.5163,-7.5218,-7.5227,-7.5213,-7.5228,-7.4601,-7.515,-7.5146,-7.5143,-7.5141,-7.5139,-7.3613,-7.3764,-7.3878,-7.4056,-7.4148,-7.4264,-7.4413,-7.4466,-7.4629,-7.4817,-7.481,-7.5028,-7.5149,-7.5379,-7.5461,-7.5634,-7.5568,-7.5646,-7.5667,-7.5688,-7.5709,-7.5181,-7.5666,-7.5665,-7.5663,-7.5663,-7.5662,0,-7.4087,-7.4156,-7.432,-7.4492,-7.4633,-7.4572,-7.4705,-7.4829,-7.502,-7.5135,-7.5284,-7.5513,-7.5697,-7.5776,-7.5958,-7.6082,-7.6066,-7.613,-7.6124,-7.6142,-7.5755,-7.5692,-7.614,-7.614,-7.614,-7.614,-7.614,-7.6139,-7.435,-7.4604,-7.4624,-7.4924,-7.4993,-7.5203,-7.5285,-7.5393,-7.5486,-7.5741,-7.5893,-7.5942,-7.6045,-7.6234,-7.6402,-7.6421,-7.6493,-7.6568,-7.6578,-7.6217,-7.6168,-7.6122,-7.6063,-7.6582,-7.6582,-7.6951,-7.6954,-7.6957]},{"header":{"parameterUnit":"m.s-1","parameterCategory":1,"la1":30.2991,"la2":30.254,"lo1":-89.0895,"lo2":-89.0444,"dy":0.0017,"dx":0.0017,"nx":28,"ny":28,"refTime":"2023-11-14T09:00:00:Z","depth":0,"parameterNumber":3,"parameterNumberName":"V-component_of_WINDS"},"data":[0,0,0,0,0,0,0,0,0,0,0,0,0,0,0,0,0,0,0,0,0,0,0,0,0,0,0,0,0,0,0,0,0,0,0,0,0,0,0,0,0,0,0,0,0,0,0,0,0,0,0,0,0,0,0,0,0,0,-4.2134,-4.2133,0,-4.1977,-4.1975,-4.1974,-4.1836,-4.1835,-4.1833,-4.1831,-4.1666,-4.1664,-4.1661,0,0,0,0,0,0,0,0,0,0,0,0,0,-4.231,-4.2308,-4.2135,-4.2133,-4.2131,-4.1977,-4.1975,-4.1973,-4.1836,-4.1834,-4.1833,-4.1831,-4.1667,-4.1664,-4.166,0,0,0,0,0,0,0,0,0,0,0,0,0,-4.2202,-4.2307,-4.2135,-4.2044,-4.2034,-4.1978,-4.1975,-4.1973,-4.1837,-4.1834,-4.1832,-4.183,-4.1669,-4.1664,-4.166,-4.168,0,0,-4.1646,-4.1645,0,0,0,0,0,0,0,0,-4.2208,-4.2195,-4.2059,-4.205,-4.2039,-4.1924,-4.1976,-4.1874,-4.1837,-4.1912,-4.1831,-4.1829,-4.1754,-4.1742,-4.1718,-4.1672,-4.1665,-4.1646,-4.1643,-4.1641,-4.164,0,0,0,0,0,0,0,-4.2216,-4.2201,-4.2072,-4.2058,-4.2045,-4.2009,-4.1991,-4.1956,-4.1848,-4.1905,-4.1895,-4.1878,-4.1748,-4.1722,-4.1713,-4.1662,-4.1646,-4.1642,-4.164,-4.1638,-4.162,-4.1622,0,0,0,0,0,0,-4.2238,-4.2208,-4.2077,-4.2067,-4.212,-4.2008,-4.1988,-4.1963,-4.1848,-4.1828,-4.188,-4.1872,-4.1731,-4.1718,-4.1706,-4.1719,-4.1642,-4.1637,-4.1635,-4.1618,-4.162,-4.1622,0,0,0,0,0,0,-4.2242,-4.2227,-4.2083,-4.2135,-4.2114,-4.2007,-4.1981,-4.1961,-4.1936,-4.1829,-4.1808,-4.1875,-4.1729,-4.1713,-4.1686,-4.1711,-4.1635,-4.1631,-4.1615,-4.1618,-4.1621,-4.1746,0,0,0,0,0,0,-4.2248,-4.223,-4.2238,-4.2136,-4.2112,-4.2069,-4.1983,-4.196,-4.1929,-4.1917,-4.1818,-4.18,-4.1726,-4.1694,-4.1682,-4.1704,-4.1628,-4.1612,-4.1616,-4.162,-4.1739,-4.1753,-4.1765,0,0,0,0,0,-4.2255,-4.2279,-4.2239,-4.2224,-4.212,-4.207,-4.2056,-4.1971,-4.1932,-4.1937,-4.1868,-4.1803,-4.1711,-4.1692,-4.1678,-4.1699,-4.161,-4.1615,-4.162,-4.1733,-4.175,-4.1765,0,0,0,0,0,0,-4.2386,-4.2264,-4.2219,-4.2212,-4.2152,-4.2047,-4.2052,-4.1993,-4.1943,-4.1934,-4.1829,-4.1808,-4.1793,-4.1743,-4.1725,-4.1709,-4.1651,-4.1654,-4.1742,-4.1758,-4.177,-4.1782,-4.1624,0,0,0,0,0,-4.2415,-4.2386,-4.2281,-4.2284,-4.2257,-4.216,-4.2136,-4.2075,-4.2009,-4.1983,-4.1912,-4.1849,-4.1805,-4.1779,-4.1733,-4.1731,-4.1706,-4.1738,-4.1751,-4.1762,-4.1765,-4.1756,-4.1768,-4.1638,-4.1638,-4.1638,0,0,-4.2472,-4.2402,-4.2391,-4.2309,-4.2256,-4.2227,-4.214,-4.2114,-4.209,-4.1979,-4.1949,-4.1895,-4.1817,-4.1803,-4.1792,-4.1761,-4.1795,-4.1768,-4.1778,-4.1774,-4.1762,-4.1775,-4.1786,-4.1642,-4.1641,-4.1641,0,0,-4.2563,-4.2508,-4.2504,-4.2452,-4.2373,-4.2308,-4.2307,-4.221,-4.217,-4.2139,-4.2054,-4.2023,-4.1952,-4.1898,-4.1862,-4.1929,-4.1866,-4.1917,-4.1984,-4.1977,-4.1987,-4.1996,-4.2016,-4.2026,-4.1921,-4.1921,-4.1921,0,-4.2644,-4.2598,-4.2509,-4.2486,-4.2451,-4.235,-4.2343,-4.2297,-4.2207,-4.2184,-4.215,-4.2055,-4.1996,-4.1965,-4.1981,-4.1957,-4.1949,-4.1928,-4.1993,-4.2001,-4.2007,-4.2026,-4.2034,-4.1927,-4.1927,-4.1926,-4.1925,0,-4.2701,-4.267,-4.2676,-4.2591,-4.2557,-4.2543,-4.2448,-4.2424,-4.2366,-4.2304,-4.2271,-4.2197,-4.2132,-4.2121,-4.2064,-4.2081,-4.2063,-4.2013,-4.1952,-4.2028,-4.2043,-4.205,-4.1937,-4.1935,-4.1933,-4.1931,0,0,-4.287,-4.2735,-4.2739,-4.2697,-4.2602,-4.2575,-4.2554,-4.2492,-4.2472,-4.2412,-4.239,-4.233,-4.2282,-4.2241,-4.2177,-4.2171,-4.2224,-4.212,-4.2116,-4.214,-4.2234,-4.2272,-4.2282,-4.2182,-4.2183,-4.2184,-4.224,0,-4.2943,-4.2902,-4.2819,-4.2803,-4.2771,-4.2673,-4.2654,-4.2592,-4.2533,-4.2496,-4.2429,-4.2387,-4.2328,-4.2302,-4.2292,-4.2221,-4.2242,-4.2216,-4.2158,-4.2157,-4.2179,-4.229,-4.233,-4.2386,-4.2246,-4.2247,-4.2247,0,-4.3022,-4.2969,-4.295,-4.2853,-4.2836,-4.2822,-4.2756,-4.2723,-4.2648,-4.2605,-4.2559,-4.2488,-4.2458,-4.2404,-4.2358,-4.2342,-4.2313,-4.2274,-4.2274,-4.2264,-4.2206,-4.2281,-4.2403,-4.241,-4.2257,-4.2256,-4.2255,0,-4.3144,-4.3067,-4.3045,-4.3013,-4.2901,-4.2892,-4.2844,-4.2768,-4.2735,-4.2677,-4.2653,-4.2593,-4.2559,-4.2512,-4.2426,-4.2395,-4.2389,-4.2328,-4.2349,-4.2352,-4.2351,-4.2352,-4.2468,-4.2337,-4.2337,-4.2337,-4.2337,0,-4.3233,-4.3224,-4.3098,-4.3084,-4.307,-4.2975,-4.2963,-4.2906,-4.2838,-4.2809,-4.2721,-4.2695,-4.2584,-4.2544,-4.2476,-4.2447,-4.2433,-4.2395,-4.2377,-4.2402,-4.2406,-4.238,-4.2373,-4.2339,-4.2339,-4.2338,-4.2338,0,-4.3366,-4.3282,-4.3251,-4.3146,-4.312,-4.3114,-4.3023,-4.3004,-4.2939,-4.2903,-4.2889,-4.2786,-4.2734,-4.2644,-4.2567,-4.2521,-4.2504,-4.2474,-4.253,-4.2518,-4.2543,-4.2541,-4.2645,-4.2652,-4.252,-4.2521,-4.2522,0,-4.3428,-4.3419,-4.3313,-4.3288,-4.3244,-4.3204,-4.317,-4.3074,-4.3041,-4.2954,-4.2945,-4.2887,-4.2835,-4.2757,-4.2673,-4.2612,-4.2579,-4.2619,-4.2569,-4.2593,-4.2576,-4.2577,-4.2573,-4.263,-4.2632,-4.2634,-4.2635,0,-4.3544,-4.3502,-4.3457,-4.3396,-4.3357,-4.3304,-4.3246,-4.323,-4.3121,-4.3088,-4.3034,-4.2994,-4.2914,-4.2856,-4.2783,-4.273,-4.2663,-4.2652,-4.2653,-4.2677,-4.2709,-4.2689,-4.2558,-4.2649,-4.2648,-4.2647,-4.2646,-4.2646,-4.3641,-4.3627,-4.355,-4.3501,-4.3448,-4.3395,-4.3372,-4.3303,-4.3258,-4.3186,-4.3131,-4.3081,-4.3003,-4.2898,-4.2849,-4.2807,-4.2776,-4.2779,-4.2779,-4.278,-4.2789,-4.2717,-4.2793,-4.2793,-4.2792,-4.2792,-4.2791,0,-4.375,-4.3696,-4.3652,-4.3574,-4.3534,-4.3477,-4.3409,-4.3379,-4.3336,-4.327,-4.3221,-4.3157,-4.31,-4.3011,-4.2946,-4.2928,-4.2896,-4.2914,-4.2913,-4.2902,-4.2821,-4.2826,-4.2942,-4.2942,-4.2942,-4.2942,-4.2941,-4.2941,-4.3803,-4.3775,-4.3724,-4.3668,-4.3612,-4.3563,-4.3529,-4.3478,-4.3425,-4.3359,-4.3311,-4.3254,-4.3177,-4.3105,-4.3048,-4.3023,-4.3002,-4.303,-4.2995,-4.2922,-4.2908,-4.2894,-4.2898,-4.3027,-4.3027,-4.3079,-4.3079,-4.3079]}]]